START_TIME,STEP,MOV.,M34,t_acc.,L5,t_acc.,L18,t_acc.,L14,t_acc.
1980-11-15 12:00:13.290 ,0,0,0.,12.0,0.,12.0,0.,12.0,0.,12.0
1980-11-15 12:00:25.290 ,0,0,0.,12.0,0.,12.0,0.,12.0,0.,12.0
1980-11-15 12:00:37.290 ,0,1,0.,12.0,0.,12.0,0.,12.0,0.,12.0
1980-11-15 12:00:49.290 ,0,1,0.,12.0,0.,12.0,0.,12.0,0.,12.0
1980-11-15 12:01:01.290 ,0,0,0.,12.0,0.,12.0,0.,12.0,0.,12.0
1980-11-15 12:01:13.290 ,0,0,0.,12.0,0.,12.0,0.,12.0,0.,12.0
1980-11-15 12:03:01.290 ,0,0,0.,12.0,0.,12.0,0.,12.0,0.,12.0
1980-11-15 12:03:13.290 ,0,0,0.,12.0,0.,12.0,0.,12.0,0.,12.0
1980-11-15 12:03:25.290 ,0,0,0.,12.0,0.,12.0,0.,12.0,0.,12.0
1980-11-15 12:03:37.290 ,0,0,0.,12.0,0.,12.0,0.,12.0,0.,12.0
1980-11-15 12:03:49.290 ,4,1,0.,12.0,0.,12.0,0.,12.0,0.,12.0
1980-11-15 12:04:01.290 ,4,1,0.,12.0,0.,12.0,0.,12.0,0.,12.0
1980-11-15 12:04:13.290 ,4,0,0.,12.0,0.,12.0,0.,12.0,0.,12.0
1980-11-15 12:04:25.290 ,4,0,0.,12.0,0.,12.0,0.,12.0,0.,12.0
1980-11-15 12:03:01.290 ,0,0,0.,12.0,0.,12.0,0.,12.0,0.,12.0
1980-11-15 12:03:13.290 ,0,0,0.,12.0,0.,12.0,0.,12.0,0.,12.0
1980-11-15 12:03:25.290 ,0,0,0.,12.0,0.,12.0,0.,12.0,0.,12.0
1980-11-15 12:03:37.290 ,0,0,0.,12.0,0.,12.0,0.,12.0,0.,12.0
1980-11-15 12:03:49.290 ,4,1,0.,12.0,0.,12.0,0.,12.0,0.,12.0
1980-11-15 12:04:01.290 ,4,1,0.,12.0,0.,12.0,0.,12.0,0.,12.0
1980-11-15 12:04:13.290 ,4,0,0.,12.0,0.,12.0,0.,12.0,0.,12.0
1980-11-15 12:04:25.290 ,4,0,0.,12.0,0.,12.0,0.,12.0,0.,12.0
1980-11-15 12:03:25.290 ,0,0,0.,12.0,0.,12.0,0.,12.0,0.,12.0
1980-11-15 12:03:37.290 ,0,0,0.,12.0,0.,12.0,0.,12.0,0.,12.0
1980-11-15 12:03:49.290 ,4,1,0.,12.0,0.,12.0,0.,12.0,0.,12.0
1980-11-15 12:04:01.290 ,4,1,0.,12.0,0.,12.0,0.,12.0,0.,12.0
1980-11-15 12:04:13.290 ,4,0,0.,12.0,0.,12.0,0.,12.0,0.,12.0
1980-11-15 12:04:25.290 ,4,0,0.,12.0,0.,12.0,0.,12.0,0.,12.0
1980-11-15 12:13:25.290 ,0,1,0.,12.0,0.,12.0,0.,12.0,0.,12.0
1980-11-15 12:13:37.290 ,0,1,0.,12.0,0.,12.0,0.,12.0,0.,12.0
1980-11-15 12:13:49.290 ,0,0,0.,12.0,0.,12.0,0.,12.0,0.,12.0
1980-11-15 12:14:01.290 ,0,0,0.,12.0,0.,12.0,0.,12.0,0.,12.0
1980-11-15 12:14:13.290 ,1,1,0.,12.0,0.,12.0,0.,12.0,0.,12.0
1980-11-15 12:14:25.290 ,1,1,0.,12.0,0.,12.0,0.,12.0,0.,12.0
1980-11-15 12:14:37.290 ,1,0,0.,12.0,0.,12.0,0.,12.0,0.,12.0
1980-11-15 12:14:49.290 ,1,0,0.,12.0,0.,12.0,0.,12.0,0.,12.0
1980-11-15 12:15:01.290 ,2,1,0.,12.0,0.,12.0,0.,12.0,0.,12.0
1980-11-15 12:15:13.290 ,2,1,0.,12.0,0.,12.0,0.,12.0,0.,12.0
1980-11-15 12:15:25.290 ,2,0,0.,12.0,0.,12.0,0.,12.0,0.,12.0
1980-11-15 12:15:37.290 ,2,0,0.,12.0,0.,12.0,0.,12.0,0.,12.0
1980-11-15 12:15:49.290 ,3,1,0.,12.0,0.,12.0,0.,12.0,0.,12.0
1980-11-15 12:16:01.290 ,3,1,0.,12.0,0.,12.0,0.,12.0,0.,12.0
1980-11-15 12:16:13.290 ,3,0,0.,12.0,0.,12.0,0.,12.0,0.,12.0
1980-11-15 12:16:25.290 ,3,0,0.,12.0,0.,12.0,0.,12.0,0.,12.0
1980-11-15 12:16:37.290 ,4,1,0.,12.0,0.,12.0,0.,12.0,0.,12.0
1980-11-15 12:16:49.290 ,4,1,0.,12.0,0.,12.0,0.,12.0,0.,12.0
1980-11-15 12:17:01.290 ,4,0,0.,12.0,0.,12.0,0.,12.0,0.,12.0
1980-11-15 12:17:13.290 ,4,0,0.,12.0,0.,12.0,0.,12.0,0.,12.0
1980-11-15 12:17:25.290 ,5,1,0.,12.0,0.,12.0,0.,12.0,0.,12.0
1980-11-15 12:17:37.290 ,5,1,0.,12.0,0.,12.0,0.,12.0,0.,12.0
1980-11-15 12:17:49.290 ,5,0,0.,12.0,0.,12.0,0.,12.0,0.,12.0
1980-11-15 12:18:01.290 ,5,0,0.,12.0,0.,12.0,0.,12.0,0.,12.0
1980-11-15 12:18:13.290 ,6,1,0.,12.0,0.,12.0,0.,12.0,0.,12.0
1980-11-15 12:18:25.290 ,6,1,0.,12.0,0.,12.0,0.,12.0,0.,12.0
1980-11-15 12:18:37.290 ,6,0,0.,12.0,0.,12.0,0.,12.0,0.,12.0
1980-11-15 12:18:49.290 ,6,0,0.,12.0,0.,12.0,0.,12.0,0.,12.0
1980-11-15 12:19:01.290 ,7,1,0.,12.0,0.,12.0,0.,12.0,0.,12.0
1980-11-15 12:19:13.290 ,7,1,0.,12.0,2.,12.0,0.,12.0,0.,12.0
1980-11-15 12:19:25.290 ,7,0,0.,12.0,5.,12.0,0.,12.0,0.,12.0
1980-11-15 12:19:37.290 ,7,0,0.,12.0,1.,12.0,0.,12.0,0.,12.0
1980-11-15 12:19:49.290 ,7,1,0.,12.0,2.,12.0,0.,12.0,0.,12.0
1980-11-15 12:20:01.290 ,7,1,0.,12.0,3.,12.0,0.,12.0,0.,12.0
1980-11-15 12:20:13.290 ,7,0,0.,12.0,2.,12.0,0.,12.0,0.,12.0
1980-11-15 12:20:25.290 ,7,0,,0,,0,,0,,0
1980-11-15 12:20:37.290 ,6,1,0.,12.0,5.,12.0,0.,12.0,0.,12.0
1980-11-15 12:20:49.290 ,6,1,0.,12.0,2.,12.0,0.,12.0,0.,12.0
1980-11-15 12:21:01.290 ,6,0,0.,12.0,0.,12.0,0.,12.0,0.,12.0
1980-11-15 12:21:13.290 ,6,0,0.,12.0,0.,12.0,0.,12.0,0.,12.0
1980-11-15 12:21:25.290 ,5,1,0.,12.0,0.,12.0,0.,12.0,0.,12.0
1980-11-15 12:21:37.290 ,5,1,0.,12.0,0.,12.0,0.,12.0,0.,12.0
1980-11-15 12:21:49.290 ,5,0,0.,12.0,0.,12.0,0.,12.0,0.,12.0
1980-11-15 12:22:01.290 ,5,0,0.,12.0,0.,12.0,0.,12.0,0.,12.0
1980-11-15 12:22:13.290 ,4,1,0.,12.0,0.,12.0,0.,12.0,0.,12.0
1980-11-15 12:22:25.290 ,4,1,0.,12.0,0.,12.0,0.,12.0,0.,12.0
1980-11-15 12:22:37.290 ,4,0,0.,12.0,0.,12.0,0.,12.0,0.,12.0
1980-11-15 12:22:49.290 ,4,0,0.,12.0,0.,12.0,0.,12.0,0.,12.0
1980-11-15 12:23:01.290 ,3,1,0.,12.0,0.,12.0,0.,12.0,0.,12.0
1980-11-15 12:23:13.290 ,3,1,0.,12.0,0.,12.0,0.,12.0,0.,12.0
1980-11-15 12:23:25.290 ,3,0,0.,12.0,0.,12.0,0.,12.0,0.,12.0
1980-11-15 12:23:37.290 ,3,0,0.,12.0,0.,12.0,0.,12.0,0.,12.0
1980-11-15 12:23:49.290 ,2,1,0.,12.0,0.,12.0,0.,12.0,0.,12.0
1980-11-15 12:24:01.290 ,2,1,0.,12.0,0.,12.0,0.,12.0,0.,12.0
1980-11-15 12:24:13.290 ,2,0,0.,12.0,0.,12.0,0.,12.0,0.,12.0
1980-11-15 12:24:25.290 ,2,0,0.,12.0,0.,12.0,0.,12.0,0.,12.0
1980-11-15 12:24:37.290 ,1,1,0.,12.0,0.,12.0,0.,12.0,0.,12.0
1980-11-15 12:24:49.290 ,1,1,0.,12.0,0.,12.0,0.,12.0,0.,12.0
1980-11-15 12:25:01.290 ,1,0,0.,12.0,0.,12.0,0.,12.0,0.,12.0
1980-11-15 12:25:13.290 ,1,0,0.,12.0,0.,12.0,0.,12.0,0.,12.0
1980-11-15 12:25:25.290 ,0,1,0.,12.0,0.,12.0,0.,12.0,0.,12.0
1980-11-15 12:25:37.290 ,0,1,0.,12.0,0.,12.0,0.,12.0,0.,12.0
1980-11-15 12:25:49.290 ,0,0,0.,12.0,0.,12.0,0.,12.0,0.,12.0
1980-11-15 12:26:01.290 ,0,0,0.,12.0,0.,12.0,0.,12.0,0.,12.0
1980-11-15 12:26:13.290 ,0,1,0.,12.0,0.,12.0,0.,12.0,0.,12.0
1980-11-15 12:26:25.290 ,0,1,0.,12.0,0.,12.0,0.,12.0,0.,12.0
1980-11-15 12:26:37.290 ,0,0,0.,12.0,0.,12.0,0.,12.0,0.,12.0
1980-11-15 12:26:49.290 ,0,0,0.,12.0,0.,12.0,0.,12.0,0.,12.0
1980-11-15 12:27:01.290 ,1,1,0.,12.0,0.,12.0,0.,12.0,0.,12.0
1980-11-15 12:27:13.290 ,1,1,0.,12.0,0.,12.0,0.,12.0,0.,12.0
1980-11-15 12:27:25.290 ,1,0,0.,12.0,0.,12.0,0.,12.0,0.,12.0
1980-11-15 12:27:37.290 ,1,0,0.,12.0,0.,12.0,0.,12.0,0.,12.0
1980-11-15 12:27:49.290 ,2,1,0.,12.0,0.,12.0,0.,12.0,0.,12.0
1980-11-15 12:28:01.290 ,2,1,0.,12.0,0.,12.0,0.,12.0,0.,12.0
1980-11-15 12:28:13.290 ,2,0,0.,12.0,0.,12.0,0.,12.0,0.,12.0
1980-11-15 12:28:25.290 ,2,0,0.,12.0,0.,12.0,0.,12.0,0.,12.0
1980-11-15 12:28:37.290 ,3,1,0.,12.0,0.,12.0,0.,12.0,0.,12.0
1980-11-15 12:28:49.290 ,3,1,0.,12.0,0.,12.0,0.,12.0,0.,12.0
1980-11-15 12:29:01.290 ,3,0,0.,12.0,0.,12.0,0.,12.0,0.,12.0
1980-11-15 12:29:13.290 ,3,0,0.,12.0,0.,12.0,0.,12.0,0.,12.0
1980-11-15 12:29:25.290 ,4,1,0.,12.0,0.,12.0,0.,12.0,0.,12.0
1980-11-15 12:29:37.290 ,4,1,0.,12.0,0.,12.0,0.,12.0,0.,12.0
1980-11-15 12:29:49.290 ,4,0,0.,12.0,0.,12.0,0.,12.0,0.,12.0
1980-11-15 12:30:01.290 ,4,0,0.,12.0,0.,12.0,0.,12.0,0.,12.0
1980-11-15 12:30:13.290 ,5,1,0.,12.0,0.,12.0,0.,12.0,0.,12.0
1980-11-15 12:30:25.290 ,5,1,0.,12.0,0.,12.0,0.,12.0,0.,12.0
1980-11-15 12:30:37.290 ,5,0,0.,12.0,0.,12.0,0.,12.0,0.,12.0
1980-11-15 12:30:49.290 ,5,0,0.,12.0,0.,12.0,0.,12.0,0.,12.0
1980-11-15 12:31:01.290 ,6,1,0.,12.0,0.,12.0,0.,12.0,0.,12.0
1980-11-15 12:31:13.290 ,6,1,0.,12.0,0.,12.0,0.,12.0,0.,12.0
1980-11-15 12:31:25.290 ,6,0,0.,12.0,0.,12.0,0.,12.0,0.,12.0
1980-11-15 12:31:37.290 ,6,0,0.,12.0,0.,12.0,0.,12.0,0.,12.0
1980-11-15 12:31:49.290 ,7,1,0.,12.0,0.,12.0,0.,12.0,0.,12.0
1980-11-15 12:32:01.290 ,7,1,0.,12.0,3.,12.0,0.,12.0,0.,12.0
1980-11-15 12:32:13.290 ,7,0,0.,12.0,2.,12.0,0.,12.0,0.,12.0
1980-11-15 12:32:25.290 ,7,0,0.,12.0,2.,12.0,0.,12.0,0.,12.0
1980-11-15 12:32:37.290 ,7,1,0.,12.0,7.,12.0,0.,12.0,0.,12.0
1980-11-15 12:32:49.290 ,7,1,0.,12.0,2.,12.0,0.,12.0,0.,12.0
1980-11-15 12:33:01.290 ,7,0,0.,12.0,6.,12.0,0.,12.0,0.,12.0
1980-11-15 12:33:13.290 ,7,0,0.,12.0,2.,12.0,0.,12.0,0.,12.0
1980-11-15 12:33:25.290 ,6,1,0.,12.0,5.,12.0,0.,12.0,0.,12.0
1980-11-15 12:33:37.290 ,6,1,0.,12.0,2.,12.0,0.,12.0,0.,12.0
1980-11-15 12:33:49.290 ,6,0,0.,12.0,0.,12.0,0.,12.0,0.,12.0
1980-11-15 12:34:01.290 ,6,0,0.,12.0,0.,12.0,0.,12.0,0.,12.0
1980-11-15 12:34:13.290 ,5,1,0.,12.0,0.,12.0,0.,12.0,0.,12.0
1980-11-15 12:34:25.290 ,5,1,0.,12.0,0.,12.0,0.,12.0,0.,12.0
1980-11-15 12:34:37.290 ,5,0,0.,12.0,0.,12.0,0.,12.0,0.,12.0
1980-11-15 12:34:49.290 ,5,0,0.,12.0,0.,12.0,0.,12.0,0.,12.0
1980-11-15 12:35:01.290 ,4,1,0.,12.0,0.,12.0,0.,12.0,0.,12.0
1980-11-15 12:35:13.290 ,4,1,0.,12.0,0.,12.0,0.,12.0,0.,12.0
1980-11-15 12:35:25.290 ,4,0,0.,12.0,0.,12.0,0.,12.0,0.,12.0
1980-11-15 12:35:37.290 ,4,0,0.,12.0,0.,12.0,0.,12.0,0.,12.0
1980-11-15 12:35:49.290 ,3,1,0.,12.0,0.,12.0,0.,12.0,0.,12.0
1980-11-15 12:36:01.290 ,3,1,0.,12.0,0.,12.0,0.,12.0,0.,12.0
1980-11-15 12:36:13.290 ,3,0,0.,12.0,0.,12.0,0.,12.0,0.,12.0
1980-11-15 12:36:25.290 ,3,0,0.,12.0,0.,12.0,0.,12.0,0.,12.0
1980-11-15 12:36:37.290 ,2,1,0.,12.0,0.,12.0,0.,12.0,0.,12.0
1980-11-15 12:36:49.290 ,2,1,0.,12.0,0.,12.0,0.,12.0,0.,12.0
1980-11-15 12:37:01.290 ,2,0,0.,12.0,0.,12.0,0.,12.0,0.,12.0
1980-11-15 12:37:13.290 ,2,0,0.,12.0,0.,12.0,0.,12.0,0.,12.0
1980-11-15 12:37:25.290 ,1,1,0.,12.0,0.,12.0,0.,12.0,0.,12.0
1980-11-15 12:37:37.290 ,1,1,0.,12.0,0.,12.0,0.,12.0,0.,12.0
1980-11-15 12:37:49.290 ,1,0,0.,12.0,0.,12.0,0.,12.0,0.,12.0
1980-11-15 12:38:01.290 ,1,0,0.,12.0,0.,12.0,0.,12.0,0.,12.0
1980-11-15 12:38:13.290 ,0,1,0.,12.0,0.,12.0,0.,12.0,0.,12.0
1980-11-15 12:38:25.290 ,0,1,0.,12.0,0.,12.0,0.,12.0,0.,12.0
1980-11-15 12:38:37.290 ,0,0,0.,12.0,0.,12.0,0.,12.0,0.,12.0
1980-11-15 12:38:49.290 ,0,0,0.,12.0,0.,12.0,0.,12.0,0.,12.0
1980-11-15 12:39:01.290 ,0,1,0.,12.0,0.,12.0,0.,12.0,0.,12.0
1980-11-15 12:39:13.290 ,0,1,0.,12.0,0.,12.0,0.,12.0,0.,12.0
1980-11-15 12:39:25.290 ,0,0,0.,12.0,0.,12.0,0.,12.0,0.,12.0
1980-11-15 12:39:37.290 ,0,0,0.,12.0,0.,12.0,0.,12.0,0.,12.0
1980-11-15 12:39:49.290 ,1,1,0.,12.0,0.,12.0,0.,12.0,0.,12.0
1980-11-15 12:40:01.290 ,1,1,0.,12.0,0.,12.0,0.,12.0,0.,12.0
1980-11-15 12:40:13.290 ,1,0,0.,12.0,0.,12.0,0.,12.0,0.,12.0
1980-11-15 12:40:25.290 ,1,0,0.,12.0,0.,12.0,0.,12.0,0.,12.0
1980-11-15 12:40:37.290 ,2,1,0.,12.0,0.,12.0,0.,12.0,0.,12.0
1980-11-15 12:40:49.290 ,2,1,0.,12.0,0.,12.0,0.,12.0,0.,12.0
1980-11-15 12:41:01.290 ,2,0,0.,12.0,0.,12.0,0.,12.0,0.,12.0
1980-11-15 12:41:13.290 ,2,0,0.,12.0,0.,12.0,0.,12.0,0.,12.0
1980-11-15 12:41:25.290 ,3,1,0.,12.0,0.,12.0,0.,12.0,0.,12.0
1980-11-15 12:41:37.290 ,3,1,0.,12.0,0.,12.0,0.,12.0,1.,12.0
1980-11-15 12:41:49.290 ,3,0,0.,12.0,0.,12.0,0.,12.0,0.,12.0
1980-11-15 12:42:01.290 ,3,0,0.,12.0,0.,12.0,0.,12.0,0.,12.0
1980-11-15 12:42:13.290 ,4,1,0.,12.0,0.,12.0,0.,12.0,0.,12.0
1980-11-15 12:42:25.290 ,4,1,0.,12.0,0.,12.0,0.,12.0,0.,12.0
1980-11-15 12:42:37.290 ,4,0,0.,12.0,0.,12.0,0.,12.0,0.,12.0
1980-11-15 12:42:49.290 ,4,0,0.,12.0,0.,12.0,0.,12.0,0.,12.0
1980-11-15 12:43:01.290 ,5,1,0.,12.0,0.,12.0,0.,12.0,0.,12.0
1980-11-15 12:43:13.290 ,5,1,0.,12.0,0.,12.0,0.,12.0,0.,12.0
1980-11-15 12:43:25.290 ,5,0,0.,12.0,0.,12.0,0.,12.0,0.,12.0
1980-11-15 12:43:37.290 ,5,0,0.,12.0,0.,12.0,0.,12.0,0.,12.0
1980-11-15 12:43:49.290 ,6,1,0.,12.0,0.,12.0,0.,12.0,0.,12.0
1980-11-15 12:44:01.290 ,6,1,0.,12.0,0.,12.0,0.,12.0,0.,12.0
1980-11-15 12:44:13.290 ,6,0,0.,12.0,0.,12.0,0.,12.0,0.,12.0
1980-11-15 12:44:25.290 ,6,0,0.,12.0,0.,12.0,0.,12.0,0.,12.0
1980-11-15 12:44:37.290 ,7,1,0.,12.0,0.,12.0,0.,12.0,0.,12.0
1980-11-15 12:44:49.290 ,7,1,0.,12.0,4.,12.0,0.,12.0,0.,12.0
1980-11-15 12:45:01.290 ,7,0,0.,12.0,7.,12.0,0.,12.0,0.,12.0
1980-11-15 12:45:13.290 ,7,0,0.,12.0,2.,12.0,0.,12.0,0.,12.0
1980-11-15 12:45:25.290 ,7,1,0.,12.0,4.,12.0,0.,12.0,0.,12.0
1980-11-15 12:45:37.290 ,7,1,0.,12.0,2.,12.0,0.,12.0,0.,12.0
1980-11-15 12:45:49.290 ,7,0,0.,12.0,5.,12.0,0.,12.0,0.,12.0
1980-11-15 12:46:01.290 ,7,0,0.,12.0,2.,12.0,0.,12.0,0.,12.0
1980-11-15 12:46:13.290 ,6,1,0.,12.0,5.,12.0,0.,12.0,0.,12.0
1980-11-15 12:46:25.290 ,6,1,0.,12.0,0.,12.0,0.,12.0,0.,12.0
1980-11-15 12:46:37.290 ,6,0,0.,12.0,0.,12.0,0.,12.0,0.,12.0
1980-11-15 12:46:49.290 ,6,0,0.,12.0,0.,12.0,0.,12.0,0.,12.0
1980-11-15 12:47:01.290 ,5,1,0.,12.0,0.,12.0,0.,12.0,0.,12.0
1980-11-15 12:47:13.290 ,5,1,0.,12.0,0.,12.0,0.,12.0,0.,12.0
1980-11-15 12:47:25.290 ,5,0,0.,12.0,0.,12.0,0.,12.0,0.,12.0
1980-11-15 12:47:37.290 ,5,0,0.,12.0,0.,12.0,0.,12.0,0.,12.0
1980-11-15 12:47:49.290 ,4,1,0.,12.0,1.,12.0,0.,12.0,0.,12.0
1980-11-15 12:48:01.290 ,4,1,0.,12.0,0.,12.0,0.,12.0,0.,12.0
1980-11-15 12:48:13.290 ,4,0,0.,12.0,0.,12.0,0.,12.0,0.,12.0
1980-11-15 12:48:25.290 ,4,0,0.,12.0,0.,12.0,0.,12.0,0.,12.0
1980-11-15 12:48:37.290 ,3,1,0.,12.0,0.,12.0,0.,12.0,0.,12.0
1980-11-15 12:48:49.290 ,3,1,0.,12.0,0.,12.0,0.,12.0,0.,12.0
1980-11-15 12:49:01.290 ,3,0,0.,12.0,0.,12.0,0.,12.0,0.,12.0
1980-11-15 12:49:13.290 ,3,0,0.,12.0,0.,12.0,0.,12.0,0.,12.0
1980-11-15 12:49:25.290 ,2,1,0.,12.0,0.,12.0,0.,12.0,0.,12.0
1980-11-15 12:49:37.290 ,2,1,0.,12.0,0.,12.0,0.,12.0,0.,12.0
1980-11-15 12:49:49.290 ,2,0,0.,12.0,0.,12.0,0.,12.0,0.,12.0
1980-11-15 12:50:01.290 ,2,0,0.,12.0,0.,12.0,0.,12.0,0.,12.0
1980-11-15 12:50:13.290 ,1,1,0.,12.0,0.,12.0,0.,12.0,0.,12.0
1980-11-15 12:50:25.290 ,1,1,0.,12.0,0.,12.0,0.,12.0,0.,12.0
1980-11-15 12:50:37.290 ,1,0,0.,12.0,0.,12.0,0.,12.0,0.,12.0
1980-11-15 12:50:49.290 ,1,0,0.,12.0,0.,12.0,0.,12.0,0.,12.0
1980-11-15 12:51:01.290 ,0,1,0.,12.0,0.,12.0,0.,12.0,0.,12.0
1980-11-15 12:51:13.290 ,0,1,0.,12.0,0.,12.0,0.,12.0,0.,12.0
1980-11-15 12:51:25.290 ,0,0,0.,12.0,0.,12.0,0.,12.0,0.,12.0
1980-11-15 12:51:37.290 ,0,0,0.,12.0,0.,12.0,0.,12.0,0.,12.0
1980-11-15 12:51:49.290 ,0,1,0.,12.0,0.,12.0,0.,12.0,0.,12.0
1980-11-15 12:52:01.290 ,0,1,0.,12.0,0.,12.0,0.,12.0,0.,12.0
1980-11-15 12:52:13.290 ,0,0,0.,12.0,0.,12.0,0.,12.0,0.,12.0
1980-11-15 12:52:25.290 ,0,0,0.,12.0,0.,12.0,0.,12.0,0.,12.0
1980-11-15 12:52:37.290 ,1,1,0.,12.0,0.,12.0,0.,12.0,0.,12.0
1980-11-15 12:52:49.290 ,1,1,0.,12.0,0.,12.0,0.,12.0,0.,12.0
1980-11-15 12:53:01.290 ,1,0,0.,12.0,0.,12.0,0.,12.0,0.,12.0
1980-11-15 12:53:13.290 ,1,0,0.,12.0,0.,12.0,0.,12.0,0.,12.0
1980-11-15 12:53:25.290 ,2,1,0.,12.0,0.,12.0,0.,12.0,0.,12.0
1980-11-15 12:53:37.290 ,2,1,0.,12.0,0.,12.0,0.,12.0,0.,12.0
1980-11-15 12:53:49.290 ,2,0,0.,12.0,0.,12.0,0.,12.0,0.,12.0
1980-11-15 12:54:01.290 ,2,0,0.,12.0,0.,12.0,0.,12.0,0.,12.0
1980-11-15 12:54:13.290 ,3,1,0.,12.0,0.,12.0,0.,12.0,0.,12.0
1980-11-15 12:54:25.290 ,3,1,0.,12.0,0.,12.0,0.,12.0,0.,12.0
1980-11-15 12:54:37.290 ,3,0,0.,12.0,0.,12.0,0.,12.0,0.,12.0
1980-11-15 12:54:49.290 ,3,0,0.,12.0,0.,12.0,0.,12.0,0.,12.0
1980-11-15 12:55:01.290 ,4,1,0.,12.0,0.,12.0,0.,12.0,0.,12.0
1980-11-15 12:55:13.290 ,4,1,0.,12.0,0.,12.0,0.,12.0,0.,12.0
1980-11-15 12:55:25.290 ,4,0,0.,12.0,0.,12.0,0.,12.0,0.,12.0
1980-11-15 12:55:37.290 ,4,0,0.,12.0,0.,12.0,0.,12.0,0.,12.0
1980-11-15 12:55:49.290 ,5,1,0.,12.0,0.,12.0,0.,12.0,0.,12.0
1980-11-15 12:56:01.290 ,5,1,0.,12.0,0.,12.0,0.,12.0,0.,12.0
1980-11-15 12:56:13.290 ,5,0,0.,12.0,0.,12.0,0.,12.0,0.,12.0
1980-11-15 12:56:25.290 ,5,0,0.,12.0,0.,12.0,0.,12.0,0.,12.0
1980-11-15 12:56:37.290 ,6,1,0.,12.0,0.,12.0,0.,12.0,0.,12.0
1980-11-15 12:56:49.290 ,6,1,0.,12.0,0.,12.0,0.,12.0,0.,12.0
1980-11-15 12:57:01.290 ,6,0,0.,12.0,0.,12.0,0.,12.0,0.,12.0
1980-11-15 12:57:13.290 ,6,0,0.,12.0,0.,12.0,0.,12.0,0.,12.0
1980-11-15 12:57:25.290 ,7,1,0.,12.0,0.,12.0,0.,12.0,0.,12.0
1980-11-15 12:57:37.290 ,7,1,0.,12.0,1.,12.0,0.,12.0,0.,12.0
1980-11-15 12:57:49.290 ,7,0,0.,12.0,0.,12.0,0.,12.0,0.,12.0
1980-11-15 12:58:01.290 ,7,0,0.,12.0,1.,12.0,0.,12.0,0.,12.0
1980-11-15 12:58:13.290 ,7,1,0.,12.0,3.,12.0,0.,12.0,0.,12.0
1980-11-15 12:58:25.290 ,7,1,0.,12.0,4.,12.0,0.,12.0,0.,12.0
1980-11-15 12:58:37.290 ,7,0,0.,12.0,3.,12.0,45056.,12.0,0.,12.0
1980-11-15 12:58:49.290 ,7,0,0.,12.0,5.,12.0,0.,12.0,0.,12.0
1980-11-15 12:59:01.290 ,6,1,0.,12.0,1.,12.0,0.,12.0,0.,12.0
1980-11-15 12:59:13.290 ,6,1,0.,12.0,0.,12.0,0.,12.0,0.,12.0
1980-11-15 12:59:25.290 ,6,0,0.,12.0,0.,12.0,0.,12.0,0.,12.0
1980-11-15 12:59:37.290 ,6,0,0.,12.0,0.,12.0,0.,12.0,0.,12.0
1980-11-15 12:59:49.290 ,5,1,0.,12.0,0.,12.0,0.,12.0,0.,12.0
1980-11-15 13:00:01.290 ,5,1,0.,12.0,0.,12.0,0.,12.0,0.,12.0
1980-11-15 13:00:13.290 ,5,0,0.,12.0,0.,12.0,0.,12.0,0.,12.0
1980-11-15 13:00:25.290 ,5,0,0.,12.0,0.,12.0,0.,12.0,0.,12.0
1980-11-15 13:00:37.290 ,4,1,0.,12.0,0.,12.0,0.,12.0,0.,12.0
1980-11-15 13:00:49.290 ,4,1,0.,12.0,0.,12.0,0.,12.0,0.,12.0
1980-11-15 13:01:01.290 ,4,0,0.,12.0,0.,12.0,0.,12.0,0.,12.0
1980-11-15 13:01:13.290 ,4,0,0.,12.0,0.,12.0,0.,12.0,0.,12.0
1980-11-15 13:01:25.290 ,3,1,0.,12.0,0.,12.0,0.,12.0,0.,12.0
1980-11-15 13:01:37.290 ,3,1,0.,12.0,0.,12.0,0.,12.0,0.,12.0
1980-11-15 13:01:49.290 ,3,0,0.,12.0,0.,12.0,0.,12.0,0.,12.0
1980-11-15 13:02:01.290 ,3,0,0.,12.0,0.,12.0,0.,12.0,0.,12.0
1980-11-15 13:02:13.290 ,2,1,0.,12.0,0.,12.0,0.,12.0,0.,12.0
1980-11-15 13:02:25.290 ,2,1,0.,12.0,0.,12.0,0.,12.0,0.,12.0
1980-11-15 13:02:37.290 ,2,0,0.,12.0,0.,12.0,0.,12.0,0.,12.0
1980-11-15 13:02:49.290 ,2,0,0.,12.0,0.,12.0,0.,12.0,0.,12.0
1980-11-15 13:03:01.290 ,1,1,0.,12.0,0.,12.0,0.,12.0,0.,12.0
1980-11-15 13:03:13.290 ,1,1,0.,12.0,0.,12.0,0.,12.0,0.,12.0
1980-11-15 13:03:25.290 ,1,0,0.,12.0,0.,12.0,0.,12.0,0.,12.0
1980-11-15 13:03:37.290 ,1,0,0.,12.0,0.,12.0,0.,12.0,0.,12.0
1980-11-15 13:03:49.290 ,0,1,0.,12.0,0.,12.0,0.,12.0,0.,12.0
1980-11-15 13:04:01.290 ,0,1,0.,12.0,0.,12.0,0.,12.0,0.,12.0
1980-11-15 13:04:13.290 ,0,0,0.,12.0,0.,12.0,0.,12.0,0.,12.0
1980-11-15 13:04:25.290 ,0,0,0.,12.0,0.,12.0,0.,12.0,0.,12.0
1980-11-15 13:04:37.290 ,0,1,0.,12.0,0.,12.0,0.,12.0,0.,12.0
1980-11-15 13:04:49.290 ,0,1,0.,12.0,0.,12.0,0.,12.0,0.,12.0
1980-11-15 13:05:01.290 ,0,0,0.,12.0,0.,12.0,0.,12.0,0.,12.0
1980-11-15 13:05:13.290 ,0,0,0.,12.0,0.,12.0,0.,12.0,0.,12.0
1980-11-15 13:05:25.290 ,1,1,0.,12.0,0.,12.0,0.,12.0,0.,12.0
1980-11-15 13:05:37.290 ,1,1,0.,12.0,0.,12.0,0.,12.0,0.,12.0
1980-11-15 13:05:49.290 ,1,0,0.,12.0,0.,12.0,0.,12.0,0.,12.0
1980-11-15 13:06:01.290 ,1,0,0.,12.0,0.,12.0,0.,12.0,0.,12.0
1980-11-15 13:06:13.290 ,2,1,0.,12.0,0.,12.0,0.,12.0,0.,12.0
1980-11-15 13:06:25.290 ,2,1,0.,12.0,0.,12.0,0.,12.0,0.,12.0
1980-11-15 13:06:37.290 ,2,0,0.,12.0,0.,12.0,0.,12.0,0.,12.0
1980-11-15 13:06:49.290 ,2,0,0.,12.0,0.,12.0,0.,12.0,0.,12.0
1980-11-15 13:07:01.290 ,3,1,0.,12.0,0.,12.0,0.,12.0,0.,12.0
1980-11-15 13:07:13.290 ,3,1,0.,12.0,0.,12.0,0.,12.0,0.,12.0
1980-11-15 13:07:25.290 ,3,0,0.,12.0,0.,12.0,0.,12.0,0.,12.0
1980-11-15 13:07:37.290 ,3,0,0.,12.0,0.,12.0,0.,12.0,0.,12.0
1980-11-15 13:07:49.290 ,4,1,0.,12.0,0.,12.0,0.,12.0,0.,12.0
1980-11-15 13:08:01.290 ,4,1,0.,12.0,0.,12.0,0.,12.0,0.,12.0
1980-11-15 13:08:13.290 ,4,0,0.,12.0,0.,12.0,0.,12.0,0.,12.0
1980-11-15 13:08:25.290 ,4,0,0.,12.0,0.,12.0,0.,12.0,0.,12.0
1980-11-15 13:08:37.290 ,5,1,0.,12.0,0.,12.0,0.,12.0,0.,12.0
1980-11-15 13:08:49.290 ,5,1,0.,12.0,0.,12.0,0.,12.0,0.,12.0
1980-11-15 13:09:01.290 ,5,0,0.,12.0,0.,12.0,0.,12.0,0.,12.0
1980-11-15 13:09:13.290 ,5,0,0.,12.0,0.,12.0,0.,12.0,0.,12.0
1980-11-15 13:09:25.290 ,6,1,0.,12.0,0.,12.0,0.,12.0,0.,12.0
1980-11-15 13:09:37.290 ,6,1,0.,12.0,0.,12.0,0.,12.0,0.,12.0
1980-11-15 13:09:49.290 ,6,0,0.,12.0,0.,12.0,0.,12.0,0.,12.0
1980-11-15 13:10:01.290 ,6,0,0.,12.0,0.,12.0,0.,12.0,0.,12.0
1980-11-15 13:10:13.290 ,7,1,0.,12.0,0.,12.0,0.,12.0,0.,12.0
1980-11-15 13:10:25.290 ,7,1,0.,12.0,1.,12.0,0.,12.0,0.,12.0
1980-11-15 13:10:37.290 ,7,0,0.,12.0,3.,12.0,0.,12.0,0.,12.0
1980-11-15 13:10:49.290 ,7,0,0.,12.0,5.,12.0,0.,12.0,0.,12.0
1980-11-15 13:11:01.290 ,7,1,0.,12.0,3.,12.0,0.,12.0,0.,12.0
1980-11-15 13:11:13.290 ,7,1,0.,12.0,3.,12.0,0.,12.0,0.,12.0
1980-11-15 13:11:25.290 ,7,0,0.,12.0,3.,12.0,0.,12.0,0.,12.0
1980-11-15 13:11:37.290 ,7,0,0.,12.0,7.,12.0,0.,12.0,0.,12.0
1980-11-15 13:11:49.290 ,6,1,0.,12.0,4.,12.0,0.,12.0,0.,12.0
1980-11-15 13:12:01.290 ,6,1,0.,12.0,2.,12.0,0.,12.0,0.,12.0
1980-11-15 13:12:13.290 ,6,0,0.,12.0,0.,12.0,0.,12.0,0.,12.0
1980-11-15 13:12:25.290 ,6,0,0.,12.0,0.,12.0,0.,12.0,0.,12.0
1980-11-15 13:12:37.290 ,5,1,0.,12.0,0.,12.0,0.,12.0,0.,12.0
1980-11-15 13:12:49.290 ,5,1,0.,12.0,0.,12.0,0.,12.0,0.,12.0
1980-11-15 13:13:01.290 ,5,0,0.,12.0,0.,12.0,0.,12.0,0.,12.0
1980-11-15 13:13:13.290 ,5,0,0.,12.0,0.,12.0,0.,12.0,0.,12.0
1980-11-15 13:13:25.290 ,4,1,0.,12.0,0.,12.0,0.,12.0,0.,12.0
1980-11-15 13:13:37.290 ,4,1,0.,12.0,0.,12.0,0.,12.0,0.,12.0
1980-11-15 13:13:49.290 ,4,0,0.,12.0,0.,12.0,0.,12.0,0.,12.0
1980-11-15 13:14:01.290 ,4,0,0.,12.0,0.,12.0,0.,12.0,0.,12.0
1980-11-15 13:14:13.290 ,3,1,0.,12.0,0.,12.0,0.,12.0,0.,12.0
1980-11-15 13:14:25.290 ,3,1,0.,12.0,0.,12.0,0.,12.0,0.,12.0
1980-11-15 13:14:37.290 ,3,0,0.,12.0,0.,12.0,0.,12.0,0.,12.0
1980-11-15 13:14:49.290 ,3,0,0.,12.0,0.,12.0,0.,12.0,1.,12.0
1980-11-15 13:15:01.290 ,2,1,0.,12.0,0.,12.0,0.,12.0,0.,12.0
1980-11-15 13:15:13.290 ,2,1,0.,12.0,0.,12.0,0.,12.0,0.,12.0
1980-11-15 13:15:25.290 ,2,0,0.,12.0,0.,12.0,0.,12.0,0.,12.0
1980-11-15 13:15:37.290 ,2,0,0.,12.0,0.,12.0,0.,12.0,0.,12.0
1980-11-15 13:15:49.290 ,1,1,0.,12.0,0.,12.0,0.,12.0,0.,12.0
1980-11-15 13:16:01.290 ,1,1,0.,12.0,0.,12.0,0.,12.0,0.,12.0
1980-11-15 13:16:13.290 ,1,0,0.,12.0,0.,12.0,0.,12.0,0.,12.0
1980-11-15 13:16:25.290 ,1,0,0.,12.0,0.,12.0,0.,12.0,0.,12.0
1980-11-15 13:16:37.290 ,0,1,0.,12.0,0.,12.0,0.,12.0,0.,12.0
1980-11-15 13:16:49.290 ,0,1,0.,12.0,0.,12.0,0.,12.0,0.,12.0
1980-11-15 13:17:01.290 ,0,0,0.,12.0,0.,12.0,0.,12.0,0.,12.0
1980-11-15 13:17:13.290 ,0,0,0.,12.0,0.,12.0,0.,12.0,0.,12.0
1980-11-15 13:17:25.290 ,0,1,0.,12.0,0.,12.0,0.,12.0,0.,12.0
1980-11-15 13:17:37.290 ,0,1,0.,12.0,0.,12.0,0.,12.0,0.,12.0
1980-11-15 13:17:49.290 ,0,0,0.,12.0,0.,12.0,0.,12.0,0.,12.0
1980-11-15 13:18:01.290 ,0,0,0.,12.0,0.,12.0,0.,12.0,0.,12.0
1980-11-15 13:18:13.290 ,1,1,0.,12.0,0.,12.0,0.,12.0,0.,12.0
1980-11-15 13:18:25.290 ,1,1,0.,12.0,0.,12.0,0.,12.0,0.,12.0
1980-11-15 13:18:37.290 ,1,0,0.,12.0,0.,12.0,0.,12.0,0.,12.0
1980-11-15 13:18:49.290 ,1,0,0.,12.0,0.,12.0,0.,12.0,0.,12.0
1980-11-15 13:19:01.290 ,2,1,0.,12.0,0.,12.0,0.,12.0,0.,12.0
1980-11-15 13:19:13.290 ,2,1,0.,12.0,0.,12.0,0.,12.0,0.,12.0
1980-11-15 13:19:25.290 ,2,0,0.,12.0,0.,12.0,0.,12.0,0.,12.0
1980-11-15 13:19:37.290 ,2,0,0.,12.0,0.,12.0,0.,12.0,0.,12.0
1980-11-15 13:19:49.290 ,3,1,0.,12.0,0.,12.0,0.,12.0,0.,12.0
1980-11-15 13:20:01.290 ,3,1,0.,12.0,0.,12.0,0.,12.0,0.,12.0
1980-11-15 13:20:13.290 ,3,0,0.,12.0,0.,12.0,0.,12.0,0.,12.0
1980-11-15 13:20:25.290 ,3,0,0.,12.0,0.,12.0,0.,12.0,0.,12.0
1980-11-15 13:20:37.290 ,4,1,0.,12.0,0.,12.0,0.,12.0,0.,12.0
1980-11-15 13:20:49.290 ,4,1,0.,12.0,0.,12.0,0.,12.0,0.,12.0
1980-11-15 13:21:01.290 ,4,0,0.,12.0,0.,12.0,0.,12.0,0.,12.0
1980-11-15 13:21:13.290 ,4,0,0.,12.0,0.,12.0,0.,12.0,0.,12.0
1980-11-15 13:21:25.290 ,5,1,0.,12.0,0.,12.0,0.,12.0,0.,12.0
1980-11-15 13:21:37.290 ,5,1,0.,12.0,0.,12.0,0.,12.0,0.,12.0
1980-11-15 13:21:49.290 ,5,0,0.,12.0,0.,12.0,0.,12.0,0.,12.0
1980-11-15 13:22:01.290 ,5,0,0.,12.0,0.,12.0,0.,12.0,0.,12.0
1980-11-15 13:22:13.290 ,6,1,0.,12.0,0.,12.0,0.,12.0,0.,12.0
1980-11-15 13:22:25.290 ,6,1,0.,12.0,0.,12.0,0.,12.0,0.,12.0
1980-11-15 13:22:37.290 ,6,0,0.,12.0,0.,12.0,0.,12.0,0.,12.0
1980-11-15 13:22:49.290 ,6,0,0.,12.0,0.,12.0,0.,12.0,0.,12.0
1980-11-15 13:23:01.290 ,7,1,0.,12.0,0.,12.0,0.,12.0,0.,12.0
1980-11-15 13:23:13.290 ,7,1,0.,12.0,2.,12.0,0.,12.0,0.,12.0
1980-11-15 13:23:25.290 ,7,0,0.,12.0,1.,12.0,0.,12.0,0.,12.0
1980-11-15 13:23:37.290 ,7,0,0.,12.0,4.,12.0,0.,12.0,0.,12.0
1980-11-15 13:23:49.290 ,7,1,0.,12.0,2.,12.0,0.,12.0,0.,12.0
1980-11-15 13:24:01.290 ,7,1,0.,12.0,2.,12.0,0.,12.0,0.,12.0
1980-11-15 13:24:13.290 ,7,0,0.,12.0,3.,12.0,0.,12.0,0.,12.0
1980-11-15 13:24:25.290 ,7,0,0.,12.0,2.,12.0,0.,12.0,0.,12.0
1980-11-15 13:24:37.290 ,6,1,0.,12.0,4.,12.0,0.,12.0,0.,12.0
1980-11-15 13:24:49.290 ,6,1,0.,12.0,1.,12.0,0.,12.0,0.,12.0